Weather in Novohrad-Volynskyi

Ukraine / Zhytomyr Region     50°35′35″N   27°37′16″E
temp.,
°C
wind,
m/s
gust,
m/s
humid.,
%
clouds,
%
prec.,
mm/h
press.,
hPa
HPBL,
m
11 may, tue
tue1100:00+9se47810 0.0 1023110
03:00+8se47870 0.0 1023111
06:00+7se36820 0.0 102397
09:00+12ese46620 0.0 1023364
12:00+16ese44440 0.0 10211098
15:00+18e44470 0.0 10201221
18:00+19e45600 0.0 10191034
21:00+13e47800 0.0 101897
12 may, wed
wed1200:00+11e49850 0.0 1018144
03:00+10e39960 0.0 1017189
06:00+10e6109381 0.0 1017521
09:00+11ese79711 0.0 1017892
12:00+13e896258 0.0 10161372
15:00+12e786499 0.0 10161374
18:00+11e477199 0.0 1015907
21:00+9e2284100 0.0 101314
13 may, thu
thu1300:00+7ese349436 0.0 101375
03:00+5se339496 0.0 101152
06:00+5se359685 0.0 1010120
09:00+11se58748 0.0 1009675
12:00+14sse7960100 0.0 10071587
15:00+10se71286100 0.1 1008800
18:00+11se61493100 1.3 1006698
21:00+12sse71489100 1.6 1006710
14 may, fri
fri1400:00+11sse71394100 0.2 1006641
03:00+11sse51196100 2.6 1006436
06:00+10sse499627 0.1 1006252
09:00+12sse458622 0.1 1006304
12:00+17sse4569100 0.0 10061027
15:00+17s5671100 1.4 10051011
18:00+13s4793100 2.2 1006207
21:00+13sw3388100 2.6 100658
15 may, sat
sat1500:00+10wsw489365 0.0 1008144
03:00+8wsw410945 0.0 1009205
06:00+8wsw39955 0.0 1010180
09:00+12wsw468131 0.0 1010532
12:00+15w576822 0.1 10111100
15:00+17w466266 0.5 10111451
18:00+17wnw236431 0.1 1010860
21:00+12nne22835 0.1 101111